Location: Bellegarde
(43.7533°N, 4.5165°E)
Time: 02:43:01
(UTC+00:00)

Daily predictions for brighter satellites

Satellite Brightness Start Highest point End
(mag) Time Altitude Azimuth Time Altitude Azimuth Time Altitude Azimuth
Cosmos 2263 Rocket 4.5 03:01:26 19° NE 03:01:26 19° NE 03:03:12 10° NE
CZ-4C R/B 4.3 03:25:49 16° SE 03:27:07 18° ESE 03:30:41 10° ENE
ATLAS 3B R/B 4.1 03:30:35 28° NNE 03:32:06 31° NE 03:38:18 10° E
Cosmos 1943 4.3 03:36:00 39° ESE 03:36:00 39° ESE 03:39:51 10° SE
Lacrosse 4 Rocket 4.0 03:38:11 19° E 03:38:11 19° E 03:39:49 10° ESE
ALOS 3.9 03:50:46 10° NNE 03:53:16 28° NE 03:53:16 28° NE
NOSS 3-4 (A) 3.4 04:00:50 76° ENE 04:00:50 76° ENE 04:06:43 10° NE
NOSS 3-4 (C) 3.4 04:00:54 77° E 04:00:54 77° E 04:06:50 10° NE
NOSS 3-2 (C) 3.9 04:00:08 73° W 04:00:44 76° WSW 04:09:19 10° SSE
Milstar 3 Cent rocket 4.3 04:00:16 24° SSW 04:02:35 27° SSE 04:11:43 10° ESE
CENTAUR R/B 3.1 04:01:36 66° WNW 04:02:45 75° WSW 04:11:37 10° SSE
SL-4 R/B 4.2 04:15:02 18° NE 04:15:02 18° NE 04:16:14 10° NE
Cosmos 1151 Rocket 3.8 04:17:01 49° ESE 04:17:01 49° ESE 04:20:30 10° SSE
Cosmos 1844 Rocket 4.5 04:11:46 10° SSE 04:16:38 30° ESE 04:21:30 10° NE
Cosmos 1782 4.4 04:16:34 28° NE 04:17:41 34° ENE 04:21:22 10° SE
ATLAS 2AS CENTAUR R/B 3.0 04:15:30 30° SSW 04:19:58 86° ESE 04:27:53 10° NE
ERS-2 4.1 04:17:41 10° SSE 04:19:17 24° SE 04:19:17 24° SE
Cosmos 1680 Rocket 4.3 04:20:02 27° N 04:22:38 50° ENE 04:27:47 10° SE
ATLAS 5 CENTAUR R/B 4.3 04:31:19 12° NNE 04:31:19 12° NNE 04:31:33 10° NNE
Atlas Centaur 2 4.1 04:26:41 19° SSW 04:28:50 22° S 04:33:09 10° SE
RESURS DK-1 3.7 04:26:56 10° S 04:30:44 40° ESE 04:34:38 10° NE
Lacrosse 5 1.7 04:32:03 81° WNW 04:32:10 82° NW 04:37:16 10° NE
ATLAS CENTAUR R/B 2.8 04:32:06 26° NNE 04:32:44 27° NE 04:36:07 10° ESE
ADEOS 3.4 04:29:53 10° NNE 04:35:09 87° WNW 04:40:22 10° SSW
Cosmos 1328 Rocket 3.5 04:35:39 62° N 04:36:21 81° E 04:40:47 10° S
Cosmos 2263 Rocket 2.9 04:43:11 35° NNW 04:43:11 35° NNW 04:47:20 10° NNE
Cosmos 2112 Rocket 4.4 04:38:53 21° N 04:42:27 64° ENE 04:47:44 10° SSE
Gbstr 26 Del rocket 3.0 04:43:34 58° NE 04:43:34 58° NE 04:47:19 10° ESE
SJ 16-02 2.2 04:45:52 36° N 04:45:52 36° N 04:48:42 10° NNE
Meteor 1-4 Rocket 4.0 04:46:48 26° S 04:46:48 26° S 04:48:24 10° S
Cosmos 1898 Rocket 3.7 04:46:31 10° S 04:51:48 73° ESE 04:57:08 10° NNE
Meteor 1-26 Rocket 4.1 04:48:59 14° NNW 04:54:00 70° W 04:59:34 10° S
FALCON 9 DEB 3.7 04:56:35 44° NNE 04:56:35 44° NNE 04:58:59 10° NE
FALCON 9 DEB 3.8 04:56:45 42° NNE 04:56:45 42° NNE 04:59:06 10° NE
Cosmos 1743 Rocket 4.3 04:55:03 10° S 04:59:23 55° E 05:03:46 10° NNE
FENGYUN 3A 3.8 04:54:47 10° N 04:59:58 47° WNW 05:05:06 10° SW
Cosmos 1408 Rocket 3.4 04:56:54 10° SSW 05:01:21 73° W 05:05:49 10° N
COSMO-SKYMED 1 2.4 05:00:32 10° S 05:04:52 75° WSW 05:07:59 19° NNW
Cosmos 2181 Rocket 4.0 04:59:06 10° NNW 05:05:09 58° W 05:11:07 10° S
Cosmos 1709 Rocket 4.4 05:00:13 10° SW 05:06:08 39° WNW 05:12:06 10° N
Cosmos 1937 Rocket 3.6 05:03:46 10° SSW 05:08:53 74° ESE 05:14:05 10° NNE
Meteor 2-3 Rocket 4.0 05:07:59 10° SW 05:13:25 44° WNW 05:18:58 10° N
Lacrosse 4 Rocket 2.4 05:14:32 30° WSW 05:14:32 30° WSW 05:18:21 10° S
CZ-4C R/B 2.0 05:11:05 18° SW 05:14:44 65° NW 05:20:38 10° NNE
Cosmos 2154 Rocket 4.4 05:09:02 10° S 05:15:10 65° E 05:21:22 10° NNE
MOS 1 Rocket 4.0 05:10:35 10° SSE 05:15:17 59° ENE 05:20:18 10° N
Cosmos 1689 Rocket 1.9 05:15:05 10° S 05:17:55 62° WSW 05:18:12 58° WNW
Cosmos 1943 4.3 05:17:53 24° W 05:17:56 24° WSW 05:22:22 10° SSW
CZ-4B R/B 3.0 05:14:09 10° N 05:18:38 68° WNW 05:22:59 10° SSW
FALCON 9 DEB 3.3 05:18:32 42° NW 05:18:41 43° NNW 05:21:48 10° NE
Meteor 1-10 Rocket 4.4 05:15:59 10° N 05:21:34 72° ENE 05:27:10 10° SSE
SAR-Lupe-4 3.9 05:18:21 10° S 05:21:45 41° W 05:22:38 34° WNW
Aureole 2 Rocket 2.7 05:20:28 10° S 05:22:55 47° ESE 05:25:23 10° NNE
ATLAS 3B R/B 2.7 05:17:52 17° NW 05:23:26 76° WSW 05:30:39 10° SSE
Cosmos 1862 3.3 05:22:04 10° S 05:26:07 88° WNW 05:30:12 10° N
Genesis I 3.2 05:24:54 18° SW 05:27:30 54° NW 05:31:18 10° NNE
YAOGAN 6 3.5 05:25:54 10° NNE 05:29:19 49° E 05:32:42 10° S
deb Chang Zheng 4 4.3 05:28:28 10° N 05:32:17 31° WNW 05:36:06 10° SW
ALOS 3.5 05:28:51 10° NNW 05:31:45 21° NW 05:31:45 21° NW
Cosmos 858 Rocket 4.4 05:28:00 10° SSW 05:33:11 70° WNW 05:38:27 10° NNE
Cosmos 2327 Rocket 4.4 05:28:27 10° S 05:34:33 88° W 05:40:41 10° N
Cosmos 990 Rocket 4.3 05:29:37 10° SW 05:34:36 43° WNW 05:39:38 10° N
Cosmos 2074 Rocket 4.0 05:29:54 10° SSW 05:35:59 58° W 05:42:07 10° N
PSLV R/B 3.7 05:34:19 10° NNE 05:38:12 88° ESE 05:41:57 10° SSW
ASTRO F (AKARI) 4.1 05:37:03 10° N 05:40:07 61° WNW 05:43:13 10° SSW
BREEZE M DEB (TANK) 3.1 05:32:42 10° SW 05:41:32 71° SSE 05:44:27 10° ENE
Cosmos 405 Rocket 2.5 05:38:19 10° SSW 05:41:58 62° WNW 05:45:42 10° N
EO 1 Delta rocket 4.0 05:41:07 10° S 05:46:09 58° W 05:50:44 10° NNW
Cosmos 1295 Rocket 4.4 05:41:25 10° S 05:47:31 89° W 05:53:38 10° N
Cosmos 1812 2.8 05:44:11 10° NNW 05:47:57 55° W 05:51:42 10° S
USA 306 4.5 05:47:01 12° NW 05:50:07 25° NNE 05:53:43 10° ENE
Cosmos 2228 Rocket 3.1 05:46:09 10° NNW 05:50:30 58° W 05:54:48 10° S
Cosmos 1515 Rocket 4.5 05:47:06 10° NNW 05:50:54 28° W 05:54:41 10° SSW
NOSS 3-4 (A) 4.5 05:48:19 15° W 05:52:04 26° NNW 05:57:22 10° NNE
NOSS 3-4 (C) 4.5 05:48:24 15° W 05:52:12 26° NNW 05:57:31 10° NNE
CENTAUR R/B 4.5 05:48:50 14° WNW 05:52:33 18° WSW 05:58:03 10° SW
SL-4 R/B 3.2 05:50:37 14° NW 05:53:09 25° N 05:56:15 10° ENE
Cosmos 2184 Rocket 4.3 05:47:35 10° SSW 05:53:35 45° WNW 05:59:41 10° N
Cosmos 1782 4.3 05:52:14 15° WNW 05:53:44 18° W 05:56:31 10° SW
Cosmos 1356 4.1 05:54:19 10° S 05:57:39 57° E 06:01:02 10° NNE
FALCON 9 DEB 4.3 05:56:58 15° WNW 05:58:44 24° NNW 06:01:26 10° NE
USA 234 3.5 05:52:30 10° NE 05:59:04 77° SE 06:05:37 10° SW
Cosmos 1844 Rocket 3.0 05:55:00 10° SW 06:00:19 42° WNW 06:05:44 10° NNE
Spot 2 4.5 05:55:26 10° N 06:00:33 64° WNW 06:05:32 10° SSW
EXPRESS MD2 4.3 06:03:36 12° WNW 06:07:22 67° NNE 06:15:35 10° ESE
Cosmos 1707 Rocket 3.7 06:03:12 10° N 06:07:34 80° E 06:11:53 10° S
COSMOS 2455 2.8 06:02:23 10° SW 06:08:25 76° WNW 06:14:30 10° NNE
RESURS DK-1 3.6 06:05:41 10° WSW 06:08:54 21° NW 06:12:10 10° N
MOS 1-B 4.3 06:03:41 10° NNE 06:09:31 76° WNW 06:15:18 10° SSW
BREEZE-M (TANK) 3.7 06:02:18 10° SW 06:10:12 53° SSE 06:12:54 10° ENE
ATLAS CENTAUR R/B 2.2 06:08:18 10° NW 06:11:35 29° WSW 06:15:03 10° S
ATLAS 2AS CENTAUR R/B 3.8 06:04:56 10° W 06:11:52 32° NW 06:18:42 10° NNE
BREEZE-M DEB 3.7 06:02:57 10° WNW 06:11:57 55° SW 06:14:53 10° SE
NOAA 6 4.0 06:07:33 10° N 06:12:37 62° WNW 06:17:38 10° SSW
Cosmos 1844 4.1 06:09:03 10° SW 06:14:15 40° WNW 06:19:31 10° NNE
H-2A R/B 3.7 06:11:49 10° NNW 06:15:06 26° WNW 06:18:21 10° SW
Lacrosse 5 3.0 06:11:35 10° WNW 06:15:48 25° NNW 06:20:01 10° NE
Atlas Centaur 2 4.1 06:13:03 10° SW 06:16:58 18° SSW 06:20:24 10° SSE
Cosmos 372 Rocket 4.0 06:12:39 10° SW 06:17:38 55° WNW 06:22:39 10° NNE
CZ-4B DEB 4.3 06:12:25 10° N 06:17:45 56° WNW 06:23:05 10° SSW
Cosmos 1437 Rocket 3.1 06:14:31 10° NNW 06:18:05 40° W 06:21:37 10° SSW
Geosat 4.5 06:16:15 10° SE 06:21:11 63° ENE 06:26:10 10° NNW
Okean O Rocket 1.6 06:16:55 10° NNE 06:21:22 83° WNW 06:25:49 10° SSW
Cosmos 1242 Rocket 3.8 06:19:36 10° N 06:23:08 44° ENE 06:26:39 10° SSE
USA 81 4.0 06:18:20 10° S 06:23:36 76° W 06:28:53 10° N
PAYLOAD B 4.3 06:18:47 10° N 06:24:13 61° WNW 06:29:36 10° SSW
SMAP 3.1 06:20:26 10° N 06:25:04 68° WNW 06:29:41 10° SSW
